Hoonah, AK

2:29 PM AKST on February 05, 2016 (GMT -0900)
Hoonah

Weather History for PAOH - October, 2012

Change the Weather History Date:

Wednesday, October 10, 2012

  Actual Average Record
Temperature  
Mean Temperature 44 °F -  
Max Temperature 53 °F - - ()
Min Temperature 36 °F - - ()
Degree Days  
Heating Degree Days 20    
Moisture  
Dew Point 42 °F    
Average Humidity 86    
Maximum Humidity 100    
Minimum Humidity 54    
Precipitation  
Precipitation 0.00 in - - ()
Sea Level Pressure  
Sea Level Pressure 30.04 in    
Wind  
Wind Speed 2 mph (East)    
Max Wind Speed 12 mph    
Max Gust Speed -    
T = Trace of Precipitation, MM = Missing Value Source: NWS Daily Summary

Daily Weather History Graph

Daily Weather History Graph

Search for Another Location

Airport or City:

Trip Planner

Search our weather history database for the weather conditions in past years. The results will help you decide how hot, cold, wet, or windy it might be!

Date:

Astronomy

Oct. 10, 2012 Rise Set
Actual Time 7:27 AM AKDT 6:08 PM AKDT
Civil Twilight 6:47 AM AKDT 6:47 PM AKDT
Nautical Twilight 6:02 AM AKDT 7:33 PM AKDT
Astronomical Twilight 5:15 AM AKDT 8:19 PM AKDT
Moon 1:08 AM AKDT (10/10) 4:08 PM AKDT (10/10)
Length of Visible Light 12h 00m
Length of Day
10h 41m
Waning Crescent, 26% of the Moon is Illuminated
Oct 10
Waning Crescent
Oct 15
New
Oct 21
First Quarter
Oct 29
Full
Nov 6
Last Quarter

Hourly Weather History & Observations

Time (AKDT) Temp. Windchill Dew Point Humidity Pressure Visibility Wind Dir Wind Speed Gust Speed Precip Events Conditions
12:56 AM 46.9 °F - 45.9 °F 96% 30.11 in - Calm Calm - N/A   Overcast
1:56 AM 46.9 °F - 45.9 °F 96% 30.11 in - Calm Calm - N/A   Overcast
2:56 AM 45.9 °F - 45.0 °F 97% 30.11 in - Calm Calm - N/A   Overcast
3:56 AM 46.9 °F - 45.0 °F 93% 30.10 in - Calm Calm - N/A   Overcast
4:56 AM 45.0 °F - 45.0 °F 100% 30.10 in - Calm Calm - N/A   Overcast
5:56 AM 41.9 °F - 41.9 °F 100% 30.10 in - Calm Calm - N/A   Mostly Cloudy
6:28 AM 39.2 °F - 39.2 °F 100% 30.10 in - Calm Calm - N/A   Clear
6:40 AM 39.2 °F - 39.2 °F 100% 30.10 in - Calm Calm - N/A   Mostly Cloudy
6:56 AM 37.9 °F - 37.9 °F 100% 30.10 in - Calm Calm - N/A   Mostly Cloudy
7:18 AM 37.4 °F - 37.4 °F 100% 30.09 in - Calm Calm - N/A   Clear
7:56 AM 36.9 °F - 36.9 °F 100% 30.10 in - Calm Calm - N/A   Clear
8:56 AM 39.9 °F - 39.9 °F 100% 30.10 in - Calm Calm - N/A   Clear
9:56 AM 46.4 °F - 42.8 °F 87% 30.09 in - Calm Calm - N/A   Clear
10:56 AM 50.9 °F - 41.9 °F 71% 30.07 in - Variable 6.9 mph - N/A   Clear
11:56 AM 52.0 °F - 41.0 °F 66% 30.06 in - East 10.4 mph - N/A   Clear
12:56 PM 53.6 °F - 39.2 °F 58% 30.05 in - East 11.5 mph - N/A   Clear
1:56 PM 52.9 °F - 39.9 °F 61% 30.03 in - ESE 10.4 mph - N/A   Clear
2:56 PM 52.9 °F - 38.8 °F 59% 30.02 in - East 8.1 mph - N/A   Clear
3:56 PM 53.6 °F - 37.4 °F 54% 29.99 in - ENE 8.1 mph - N/A   Clear
4:56 PM 52.0 °F - 38.8 °F 61% 29.98 in - ENE 6.9 mph - N/A   Clear
5:56 PM 50.0 °F - 39.9 °F 68% 29.96 in - ESE 4.6 mph - N/A   Mostly Cloudy
6:56 PM 47.8 °F - 41.9 °F 80% 29.96 in - East 5.8 mph - N/A   Overcast
7:56 PM 46.9 °F - 43.9 °F 89% 29.96 in - East 3.5 mph - N/A   Overcast
8:56 PM 46.9 °F - 43.9 °F 89% 29.94 in - Calm Calm - N/A   Overcast
9:56 PM 46.9 °F - 43.9 °F 89% 29.93 in - Calm Calm - N/A   Overcast
10:56 PM 47.8 °F - 45.9 °F 93% 29.92 in - East 5.8 mph - N/A   Overcast
11:36 PM 46.4 °F 44.3 °F 46.4 °F 100% 29.91 in - East 4.6 mph - N/A   Overcast
11:56 PM 46.9 °F - 45.9 °F 96% 29.92 in - East 4.6 mph - N/A   Overcast